DECAYED

STARLINK-1942, 46794 (Decayed)

Orbit data source: Space-Track

STARLINK-1942, 46794 was a payload satellite owned by SpaceX/Seattle (US) in LEO that was launched on Sat, 24 Oct 2020 UTC via an FALCON 9 launch vehicle from the Air Force Eastern Test Range (AFETR). Payload-class satellites include a variety of spacecraft equipped with specific instruments for various scientific and technological missions. These include communications satellites like Starlink; space stations such as the ISS; scientific satellites like the Hubble; Earth observation satellites from companies like Planet Labs, Umbra, and HawkEye 360; GPS; miniature CubeSats for education and research; and military/defense satellites.

Not visible in the next 10 days
Identifier
46794, 2020-074BH
Orbit
Decayed
Country
Flag of USUS
Related business
Manufacturer
SpaceX/Seattle
Mission
Decayed Commercial Communications
Bus & Motor
STARLINK, Unknown motor
Mass
260 kg wet, ~248 kg dry
Launch date (UTC)
2020-10-24 (6 years ago)
Launch vehicle
FALCON 9
Launch site
Air Force Eastern Test Range (AFETR)
Object type
Payload
Rocket body
Debris
Shape & HBR
Box + 1 Pan, 10.1 m
Radar Cross Section
13.562 m², Large (>1 m²)

Expand to show TLE details & history
Last TLE update: 3 days ago

TLE from 3 days ago
0 STARLINK-1942
1 46794U 20074BH  26261.84043160  .11258080  12489-4  38794-3 0  9993
2 46794  53.0135  57.0791 0007749 276.9741  83.0426 16.43977437327434
Epoch: 2026-09-18T20:10Z
TLE epoch observation values (Epoch: 2026-09-18T20:10:13.290Z)
Latitude
0.00005°
Longitude
116.76622°
Altitude
155.561 km
Speed
7.815 km/s
True Right ascension
03h 48m 18s
True Declination
0° 00' 00"
Sunlit
Object was in full shadow at epoch
Visualization orbit readout
Latitude
Unknown
Longitude
Unknown
Altitude
Unknown
Speed
Unknown
Apparent Right ascension
Unknown
Apparent Declination
Unknown
Sunlit
N/A
Visualization observer readout
Local Sidereal Time
12:19:27
Azimuth
Unknown
Elevation
Unknown
Doppler factor
Unknown
Orbital elements
Apogee altitude
160.6 km
Perigee altitude
150.474 km
Semi-major axis
6,533.674 km
Eccentricity
0.00077
Inclination
53.0135°
RAAN
57.0791°
Arg. of periapsis
276.9741°
True anomaly
83.13075°
Mean anomaly
83.0426°
Eccentric anomaly
83.08668°
Mean motion
4.10967 °/min
Orbital period
87.6 mins
BSTAR
0.00038794
Loading maneuver chart data...
Computing Atmospheric mass density...

Documentation

Showing up to 5 results
|